Weather in Bandar-e Anzali

Iran     37°28′18″N   49°28′00″E
temp.,
°C
wind,
m/s
gust,
m/s
humid.,
%
clouds,
%
prec.,
mm/h
press.,
hPa
HPBL,
m
28 january, thu
thu2800:30+10sse117451 0.0 101724
03:30+11se226747 0.0 101628
06:30+11se2266100 0.0 101530
09:30+12se2259100 0.0 101429
12:30+15ene235285 0.0 101396
15:30+15ne345842 0.0 101148
18:30+14wsw126574 0.0 101325
21:30+13sw116582 0.0 101323
29 january, fri
fri2900:30+14ssw565930 0.0 101355
03:30+14ssw575716 0.0 101170
06:30+13sw45590 0.0 101350
09:30+12nw798212 0.0 1013210
12:30+12n348019 0.0 1012208
15:30+11n568410 0.0 1011346
18:30+10nnw45880 0.0 1013382
21:30+10nnw338741 0.0 1013286
30 january, sat
sat3000:30+10n3485100 0.0 1012356
03:30+10n4484100 0.1 1011460
06:30+9nne4590100 3.1 1011405
09:30+9nne3490100 4.2 1011364
12:30+10nne4487100 0.2 1011394
15:30+10ne448697 0.2 1011410
18:30+10nne338798 0.1 1013295
21:30+9ene118699 0.1 1015244
31 january, sun
sun3100:30+9se448970 0.0 1015229
03:30+9se348735 0.0 1014154
06:30+9sse34700 0.0 1015125
09:30+11s24570 0.0 1015142
12:30+13n12570 0.0 1014110
15:30+13n23550 0.0 101453
18:30+12ese127052 0.0 101724
21:30+12wsw226541 0.0 101822
1 february, mon
mon100:30+11ssw11680 0.0 102022
03:30+11nw22630 0.0 102123
06:30+11wsw23650 0.0 102223
09:30+12ssw12620 0.0 102339
12:30+14ene33530 0.0 1021178
15:30+13ne45610 0.0 1020133
18:30+12ene23660 0.0 102124
21:30+11e22710 0.0 102224